Flag for Montserrat Weather past 2 weeks in Brades, Montserrat

Now
82 °F

Partly sunny.


Feels Like: 87 °F
Forecast: N/A
Wind: 12 mph from East

Location: Vc Bird International Antigua Airport

Current Time: May 3, 2015 at 6:00:23 PM

Latest Report: May 3, 2015 at 5:00 PM


Visibility: N/A

Pressure: 29.98 "Hg

Humidity: 70%

Dew point: 72 °F

Location of BradesLocation

Historic Weather in Brades — Graph

°F

Brades temperature yesterday

Maximum temperature yesterday: 86 °F (at 11:00 AM)
Minimum temperature yesterday: 79 °F (at 12:00 AM)
Average temperature yesterday: 81 °F

Past Weeks' High & Low Weather Summary

 TemperatureHumidityPressure
High88 °F (Apr 24, 2:00 PM)94% (Apr 26, 8:00 AM)30.07 "Hg (Apr 26, 8:00 AM)
Low73 °F (Apr 25, 6:00 AM)49% (Apr 24, 2:00 PM)29.89 "Hg (Apr 27, 3:00 PM)
Average80 °F72%29.98 "Hg
* Reported Apr 18 4:00 PM — May 3 4:00 PM, Brades, Weather by CustomWeather, © 2015

Note: Actual official high and low records may vary slightly from our data, if they occured in-between our weather recording intervals... More about our weather records

Advertising

Brades weather history for previous 24 hours

 ConditionsComfort  
Time TempWeatherWind HumidityBarometerVisibility
4:00 PM
Sun, May 3
84 °FPartly sunny.13 mph66%29.98 "HgN/A
3:00 PM84 °FScattered clouds.13 mph66%29.98 "HgN/A
2:00 PM84 °FScattered clouds.14 mph66%29.98 "HgN/A
1:00 PM86 °FScattered clouds.14 mph62%30.01 "HgN/A
12:00 PM84 °FScattered clouds.14 mph66%30.01 "HgN/A
11:00 AM84 °FScattered clouds.13 mph66%30.04 "HgN/A
10:00 AM84 °FPassing clouds.13 mph62%30.04 "HgN/A
9:00 AM84 °FPassing clouds.10 mph62%30.04 "HgN/A
8:36 AM82 °FRain. Cloudy.N/A66%30.01 "HgN/A
6:00 AM75 °FPassing clouds.2 mph78%29.98 "HgN/A
5:00 AM75 °FPassing clouds.5 mph83%29.98 "HgN/A
4:00 AM75 °FPassing clouds.3 mph78%29.95 "HgN/A
3:00 AM77 °FPassing clouds.5 mph79%29.95 "HgN/A
2:00 AM77 °FPassing clouds.6 mph79%29.95 "HgN/A
1:00 AM79 °FPassing clouds.7 mph74%29.98 "HgN/A
12:00 AM79 °FPassing clouds.8 mph74%29.98 "HgN/A
11:00 PM
Sat, May 2
79 °FPassing clouds.8 mph74%29.98 "HgN/A
10:00 PM79 °FPassing clouds.8 mph74%29.98 "HgN/A
9:00 PM79 °FPassing clouds.8 mph74%29.98 "HgN/A
8:00 PM79 °FPassing clouds.7 mph79%29.98 "HgN/A
7:00 PM81 °FPassing clouds.8 mph74%29.95 "HgN/A
6:00 PM81 °FScattered clouds.8 mph74%29.95 "HgN/A
Weather by CustomWeather, © 2015

See weather overviewHow to use our weather pages